Volver al catálogo

SL-12 R/B

AUX MOTOR

ActivoHEO
NORAD 32398·ROCKET BODY·🇷🇺 Russia

Lanzado Dec 25, 2007 desde Baikonur Cosmodrome

Loading…

Próximos Pases (próximas 24 horas)

TLE

ActualizadoSource: Space-Track

Época: Sep 8, 2026, 19:45 UTC

1 32398U 07065F   26251.82335191  .00000015  00000-0 -32510-4 0  9993
2 32398  65.3448 101.9428 5614335 259.4931  35.9346  4.24950518 67924

Sigue SL-12 R/B en tiempo real con AllMySat

Download on the App Store